Location: Kaseke
(18.0171°S, 31.0526°E)
Time: 11:39:32
(UTC+00:00)

Cosmos 2026 Rocket - Pass Details

Date: 14 July 2020
Orbit: 938 x 1002 km, 82.9° (Epoch: 07 August)

Event Time Altitude Azimuth Distance (km) Brightness Sun altitude
Rises 03:00:08 0° 353° (N) 3,579 7.1 -20.4°
Reaches altitude 10° 03:02:35 10° 351° (N) 2,643 6.4 -19.8°
Maximum altitude 03:08:36 75° 266° (W) 981 3.8 -18.5°
Drops below altitude 10° 03:14:45 10° 180° (S) 2,696 6.1 -17.1°
Sets 03:17:17 0° 178° (S) 3,656 6.8 -16.5°
